CW8721 Weather Reports


Display with metric or nautical units.
time (UTC)temp
F
wind
direction
speed
MPH
gust
MPH
rain 1hr
in
rain 24hr
in
rain mn
in
humidity
%
barometer
mb
20260507103516 55 171 4.0 11.0 0.00 0.00 0.00 32 1013.6
20260507103018 55 174 4.0 8.0 0.00 0.00 0.00 33 1013.7
20260507102513 55 172 4.0 6.0 0.00 0.00 0.00 33 1013.8
20260507102012 55 178 3.0 9.0 0.00 0.00 0.00 33 1013.7
20260507101516 55 169 4.0 8.0 0.00 0.00 0.00 33 1013.9
20260507101010 55 143 3.0 8.0 0.00 0.00 0.00 33 1013.9
20260507100511 56 181 4.0 7.0 0.00 0.00 0.00 33 1013.9
20260507100012 56 175 3.0 7.0 0.00 0.00 0.00 33 1013.9
20260507095510 56 168 4.0 7.0 0.00 0.00 0.00 33 1014.0
20260507095010 55 150 4.0 8.0 0.00 0.00 0.00 34 1014.0
20260507094509 55 165 5.0 8.0 0.00 0.00 0.00 34 1014.1
20260507094008 55 183 4.0 11.0 0.00 0.00 0.00 35 1014.2
20260507093508 55 189 5.0 12.0 0.00 0.00 0.00 35 1014.3
20260507093007 55 160 4.0 6.0 0.00 0.00 0.00 35 1014.5
20260507092510 55 169 4.0 6.0 0.00 0.00 0.00 35 1014.5
20260507092008 55 223 4.0 11.0 0.00 0.00 0.00 35 1014.6
20260507091506 56 161 2.0 14.0 0.00 0.00 0.00 35 1014.6
20260507091005 56 168 4.0 5.0 0.00 0.00 0.00 33 1014.7
20260507090511 56 163 3.0 7.0 0.00 0.00 0.00 33 1014.7
20260507085503 56 171 4.0 8.0 0.00 0.11 0.00 32 1014.8
20260507085003 56 163 3.0 8.0 0.00 0.11 0.00 32 1015.0
20260507084505 56 149 4.0 8.0 0.00 0.11 0.00 32 1014.9
20260507084002 56 202 2.0 9.0 0.00 0.11 0.00 32 1015.0
20260507083501 56 155 3.0 9.0 0.00 0.11 0.00 33 1015.1
20260507083100 56 143 3.0 9.0 0.00 0.11 0.00 33 1015.2
20260507082600 56 163 3.0 7.0 0.00 0.11 0.00 33 1015.2
20260507082059 56 163 3.0 7.0 0.00 0.11 0.00 33 1015.2
20260507081602 56 149 2.0 6.0 0.00 0.11 0.00 34 1015.4
20260507081058 55 164 2.0 6.0 0.00 0.11 0.00 34 1015.4
20260507080559 55 164 2.0 5.0 0.00 0.11 0.00 36 1015.4
20260507080059 55 161 2.0 6.0 0.00 0.11 0.00 37 1015.4
20260507075557 55 154 2.0 8.0 0.00 0.11 0.00 38 1015.5
20260507075056 55 165 4.0 8.0 0.00 0.11 0.00 38 1015.4
20260507074559 55 147 3.0 5.0 0.00 0.11 0.00 37 1015.4
20260507074059 55 163 3.0 6.0 0.00 0.11 0.00 36 1015.5
20260507073557 55 144 3.0 7.0 0.00 0.11 0.00 34 1015.6
20260507073058 55 162 2.0 7.0 0.00 0.11 0.00 34 1015.6
20260507072555 56 171 2.0 6.0 0.00 0.11 0.00 34 1015.6
20260507072053 56 181 3.0 6.0 0.00 0.11 0.00 34 1015.7
20260507071553 56 182 3.0 6.0 0.00 0.11 0.00 33 1015.7
20260507071052 56 191 3.0 6.0 0.00 0.11 0.00 32 1015.7
20260507070551 55 174 1.0 4.0 0.00 0.11 0.00 33 1015.8
20260507070051 55 149 0.0 3.0 0.00 0.11 0.00 34 1015.9
20260507065550 55 168 1.0 7.0 0.00 0.11 0.00 33 1015.8
20260507065049 55 162 1.0 7.0 0.00 0.11 0.00 34 1015.9
20260507064551 55 153 1.0 5.0 0.00 0.11 0.00 34 1015.9
20260507064048 54 171 2.0 5.0 0.00 0.11 0.00 36 1015.9
20260507063546 54 184 1.0 4.0 0.00 0.11 0.00 38 1016.0
20260507063045 53 203 1.0 3.0 0.00 0.11 0.00 40 1016.0
20260507062543 52 171 1.0 3.0 0.00 0.11 0.00 42 1016.0
20260507062041 52 162 0.0 4.0 0.00 0.11 0.00 42 1015.9
20260507061542 51 140 1.0 4.0 0.00 0.11 0.00 42 1015.9
20260507061043 51 147 1.0 4.0 0.00 0.11 0.00 42 1016.1
20260507060538 51 123 1.0 4.0 0.00 0.11 0.00 41 1016.0
20260507060042 51 104 2.0 4.0 0.00 0.11 0.00 41 1016.0
20260507055537 51 130 1.0 4.0 0.00 0.11 0.11 41 1016.0
20260507055036 51 153 0.0 2.0 0.00 0.11 0.11 41 1016.0
20260507054538 52 157 0.0 2.0 0.00 0.11 0.11 41 1015.9
20260507054038 52 158 0.0 4.0 0.00 0.11 0.11 40 1015.8
20260507053536 52 159 1.0 4.0 0.00 0.11 0.11 40 1015.9
20260507053037 52 147 1.0 6.0 0.00 0.11 0.11 41 1015.7
20260507052539 51 82 2.0 4.0 0.00 0.11 0.11 42 1015.7
20260507052035 51 142 1.0 4.0 0.00 0.11 0.11 43 1015.9
20260507051535 51 105 0.0 4.0 0.00 0.11 0.11 42 1015.7
20260507051035 51 107 1.0 4.0 0.00 0.11 0.11 42 1015.7
20260507050535 51 91 1.0 3.0 0.00 0.11 0.11 41 1015.8
20260507050035 52 89 1.0 2.0 0.00 0.11 0.11 39 1015.7
20260507045538 52 88 0.0 2.0 0.00 0.11 0.11 40 1015.7
20260507045035 52 78 0.0 2.0 0.00 0.11 0.11 38 1015.8
20260507044535 53 78 0.0 2.0 0.00 0.11 0.11 39 1016.1
20260507044035 53 78 1.0 3.0 0.00 0.11 0.11 37 1016.1
20260507043534 53 78 1.0 3.0 0.00 0.11 0.11 38 1016.0
20260507043045 53 78 0.0 1.0 0.00 0.11 0.11 37 1015.9
20260507042535 54 78 0.0 3.0 0.00 0.11 0.11 37 1016.0
20260507042037 55 78 1.0 3.0 0.00 0.11 0.11 35 1016.0
20260507041534 57 79 0.0 2.0 0.00 0.11 0.11 31 1015.9
20260507041033 57 79 0.0 2.0 0.00 0.11 0.11 30 1015.8
20260507040533 57 78 0.0 2.0 0.00 0.11 0.11 31 1015.7
20260507040033 57 78 0.0 1.0 0.00 0.11 0.11 32 1015.8
20260507035532 56 78 0.0 2.0 0.00 0.11 0.11 35 1015.8
20260507035032 57 78 0.0 2.0 0.00 0.11 0.11 33 1015.8
20260507034535 56 78 0.0 1.0 0.00 0.11 0.11 35 1015.8
20260507034034 56 78 0.0 0.0 0.00 0.11 0.11 36 1015.9
20260507033532 57 76 0.0 1.0 0.00 0.11 0.11 35 1015.7
20260507033034 56 76 0.0 1.0 0.00 0.11 0.11 33 1015.7
20260507032533 56 76 0.0 1.0 0.00 0.11 0.11 36 1015.6
20260507032031 57 76 0.0 1.0 0.00 0.11 0.11 34 1015.5
20260507031531 58 76 0.0 1.0 0.00 0.11 0.11 33 1015.5
20260507031031 58 76 0.0 0.0 0.00 0.11 0.11 30 1015.3
20260507030533 58 76 0.0 0.0 0.00 0.11 0.11 30 1015.3
20260507030031 57 74 0.0 0.0 0.00 0.11 0.11 32 1015.2
20260507025530 56 74 0.0 0.0 0.00 0.11 0.11 33 1015.2
20260507025032 56 74 0.0 0.0 0.00 0.11 0.11 31 1015.4
20260507024530 57 74 0.0 0.0 0.00 0.11 0.11 31 1015.2
20260507024030 57 74 0.0 0.0 0.00 0.11 0.11 30 1015.3
20260507023532 57 73 0.0 0.0 0.00 0.11 0.11 29 1015.3
20260507023029 58 73 0.0 2.0 0.00 0.11 0.11 28 1015.3
20260507022529 58 73 1.0 2.0 0.00 0.11 0.11 27 1015.3
20260507022033 58 72 1.0 2.0 0.00 0.11 0.11 26 1015.3
20260507021529 59 71 0.0 0.0 0.00 0.11 0.11 26 1015.2
20260507021030 59 71 0.0 2.0 0.00 0.11 0.11 27 1015.3
20260507020528 60 71 0.0 3.0 0.00 0.11 0.11 26 1015.3
20260507020044 60 71 1.0 4.0 0.00 0.11 0.11 26 1015.3
20260507015527 60 49 2.0 4.0 0.00 0.11 0.11 25 1015.3
20260507015029 61 55 1.0 4.0 0.00 0.11 0.11 25 1015.3
20260507014528 61 55 1.0 5.0 0.00 0.11 0.11 25 1015.4
20260507014028 61 58 3.0 5.0 0.00 0.11 0.11 24 1015.4
20260507013527 61 38 1.0 4.0 0.00 0.11 0.11 24 1015.4
20260507013027 61 5 2.0 5.0 0.00 0.11 0.11 23 1015.4
20260507012529 62 26 2.0 6.0 0.00 0.11 0.11 23 1015.4
20260507012026 62 350 2.0 8.0 0.00 0.11 0.11 22 1015.4
20260507011539 62 321 4.0 6.0 0.00 0.11 0.11 23 1015.5
20260507011026 62 298 2.0 6.0 0.00 0.11 0.11 22 1015.4
20260507010526 62 305 2.0 8.0 0.00 0.11 0.11 22 1015.5
20260507010029 62 302 3.0 8.0 0.00 0.11 0.11 24 1015.6
20260507005526 62 319 1.0 8.0 0.00 0.11 0.11 22 1015.6
20260507005025 63 5 3.0 10.0 0.00 0.11 0.11 22 1015.7
20260507004525 63 326 5.0 10.0 0.00 0.11 0.11 22 1015.7
20260507004026 62 273 2.0 9.0 0.00 0.11 0.11 24 1015.6
20260507003526 63 300 2.0 9.0 0.00 0.11 0.11 22 1015.7
20260507003025 63 321 3.0 11.0 0.00 0.11 0.11 24 1015.7
20260507002525 63 288 5.0 12.0 0.00 0.11 0.11 23 1015.7
20260507002024 63 289 6.0 11.0 0.00 0.11 0.11 23 1015.6
20260507001553 63 286 5.0 11.0 0.00 0.11 0.11 22 1015.6
20260507001028 63 325 8.0 11.0 0.00 0.11 0.11 23 1015.7
20260507000524 64 295 7.0 11.0 0.00 0.11 0.11 23 1015.6
20260507000025 64 301 2.0 12.0 0.00 0.11 0.11 23 1015.6
20260506235526 64 296 3.0 12.0 0.00 0.11 0.11 24 1015.6
20260506235023 64 304 5.0 10.0 0.00 0.11 0.11 23 1015.6
20260506234523 64 303 3.0 11.0 0.00 0.11 0.11 24 1015.8
20260506234023 64 331 7.0 13.0 0.00 0.11 0.11 22 1015.7
20260506233522 64 267 5.0 13.0 0.00 0.11 0.11 23 1015.7
20260506233023 64 225 2.0 15.0 0.00 0.11 0.11 24 1015.7
20260506232522 64 275 9.0 15.0 0.00 0.11 0.11 22 1015.7
20260506232021 64 299 7.0 13.0 0.00 0.11 0.11 23 1015.7
20260506231520 64 329 7.0 13.0 0.00 0.11 0.11 23 1015.7
20260506231023 64 25 5.0 13.0 0.00 0.11 0.11 23 1015.7
20260506230524 64 305 6.0 15.0 0.00 0.11 0.11 24 1015.7
20260506230020 64 302 9.0 15.0 0.00 0.11 0.11 22 1015.7
20260506225520 64 317 4.0 16.0 0.00 0.11 0.11 24 1015.7
20260506225018 63 260 9.0 18.0 0.00 0.11 0.11 23 1015.7
20260506224518 63 254 9.0 18.0 0.00 0.11 0.11 22 1015.9
20260506224018 63 250 11.0 14.0 0.00 0.11 0.11 24 1015.8
20260506223517 63 277 8.0 16.0 0.00 0.11 0.11 23 1015.8
20260506223024 63 317 7.0 20.0 0.00 0.11 0.11 24 1016.0
20260506222520 63 317 13.0 20.0 0.00 0.11 0.11 24 1016.1
20260506222017 63 22 10.0 18.0 0.00 0.11 0.11 23 1016.1
20260506221516 63 285 12.0 19.0 0.00 0.11 0.11 24 1016.3
20260506221016 64 256 10.0 17.0 0.00 0.11 0.11 23 1016.1
20260506220515 63 297 8.0 19.0 0.00 0.11 0.11 25 1016.3
20260506220015 63 300 10.0 19.0 0.00 0.11 0.11 25 1016.3
20260506215514 63 333 7.0 18.0 0.00 0.11 0.11 25 1016.4
20260506215013 63 317 8.0 19.0 0.00 0.11 0.11 25 1016.3
20260506214513 62 319 11.0 23.0 0.00 0.11 0.11 25 1016.4
20260506214013 62 260 11.0 23.0 0.00 0.11 0.11 26 1016.5
20260506213515 62 267 12.0 19.0 0.00 0.11 0.11 24 1016.6
20260506213012 62 305 11.0 18.0 0.00 0.11 0.11 25 1016.7
20260506212512 62 252 7.0 17.0 0.00 0.11 0.11 26 1016.7
20260506212016 62 287 10.0 17.0 0.00 0.11 0.11 26 1016.8
20260506211511 61 259 6.0 16.0 0.00 0.11 0.11 25 1016.7
20260506211013 62 288 8.0 17.0 0.00 0.11 0.11 25 1016.7
20260506210517 62 331 9.0 17.0 0.00 0.11 0.11 26 1016.7
20260506210019 62 288 7.0 16.0 0.00 0.11 0.11 27 1016.7
20260506205509 61 309 7.0 22.0 0.00 0.11 0.11 27 1016.5
20260506205012 61 326 7.0 22.0 0.00 0.11 0.11 27 1016.5
20260506204509 61 289 6.0 16.0 0.00 0.11 0.11 28 1016.5
20260506204009 61 257 6.0 15.0 0.00 0.11 0.11 26 1016.6
20260506203514 61 287 7.0 15.0 0.00 0.11 0.11 26 1016.7
20260506203010 61 300 7.0 14.0 0.00 0.11 0.11 29 1016.9
20260506202508 60 302 9.0 16.0 0.00 0.11 0.11 29 1016.9
20260506202007 60 304 7.0 17.0 0.00 0.11 0.11 32 1016.9
20260506201510 60 276 9.0 17.0 0.00 0.11 0.11 27 1016.9
20260506201007 59 231 6.0 18.0 0.00 0.11 0.11 28 1016.9
20260506200505 58 325 8.0 20.0 0.00 0.11 0.11 30 1016.9
20260506200006 58 254 10.0 21.0 0.00 0.11 0.11 29 1017.0
20260506195507 59 275 9.0 21.0 0.00 0.11 0.11 29 1016.9
20260506195005 59 292 10.0 17.0 0.00 0.11 0.11 29 1017.0
20260506194507 58 297 9.0 17.0 0.00 0.11 0.11 28 1016.9
20260506194007 59 277 11.0 17.0 0.00 0.11 0.11 29 1017.0
20260506193504 60 258 9.0 16.0 0.00 0.11 0.11 30 1016.9
20260506193004 60 355 8.0 17.0 0.00 0.11 0.11 31 1016.9
20260506192504 60 288 10.0 17.0 0.00 0.11 0.11 29 1016.9
20260506192003 60 270 10.0 19.0 0.00 0.11 0.11 29 1016.7
20260506191507 60 323 11.0 19.0 0.00 0.11 0.11 27 1016.9
20260506191003 61 317 13.0 19.0 0.00 0.11 0.11 26 1016.8
20260506190502 60 317 13.0 19.0 0.00 0.11 0.11 24 1016.9
20260506190002 60 17 11.0 18.0 0.00 0.11 0.11 26 1017.0
20260506185503 60 336 9.0 22.0 0.00 0.11 0.11 25 1017.0
20260506185103 60 330 13.0 22.0 0.00 0.11 0.11 26 1017.1
20260506184559 59 328 11.0 20.0 0.00 0.11 0.11 26 1017.0
20260506184101 59 42 9.0 17.0 0.00 0.11 0.11 25 1017.1
20260506183601 59 360 9.0 18.0 0.00 0.11 0.11 28 1017.2
20260506183106 59 304 11.0 18.0 0.00 0.11 0.11 30 1017.2
20260506182555 58 336 7.0 19.0 0.00 0.11 0.11 30 1017.2
20260506182054 57 263 3.0 16.0 0.00 0.11 0.11 29 1017.2
20260506181557 57 296 9.0 20.0 0.00 0.11 0.11 28 1017.3
20260506181053 58 332 11.0 20.0 0.00 0.11 0.11 29 1017.2
20260506180553 57 346 6.0 16.0 0.00 0.11 0.11 31 1017.2
20260506180053 57 301 8.0 17.0 0.00 0.11 0.11 28 1017.4
20260506175550 57 305 9.0 17.0 0.00 0.11 0.11 28 1017.4
20260506175052 57 305 8.0 19.0 0.00 0.11 0.11 32 1017.3
20260506174548 56 9 9.0 19.0 0.00 0.11 0.11 30 1017.4
20260506174047 56 304 9.0 19.0 0.00 0.11 0.11 31 1017.2
20260506173546 56 336 10.0 15.0 0.00 0.11 0.11 31 1017.3
20260506173049 55 330 6.0 15.0 0.00 0.11 0.11 31 1017.2
20260506172544 56 325 9.0 17.0 0.00 0.11 0.11 29 1017.2
20260506172043 56 320 8.0 17.0 0.00 0.11 0.11 31 1017.0
20260506171542 56 15 7.0 16.0 0.00 0.11 0.11 32 1017.0
20260506171040 55 334 10.0 16.0 0.00 0.11 0.11 32 1016.9
20260506170541 55 319 8.0 18.0 0.00 0.11 0.11 30 1016.9
20260506170045 55 344 12.0 19.0 0.00 0.11 0.11 32 1016.8
20260506165537 55 321 12.0 17.0 0.00 0.11 0.11 31 1016.8
20260506165036 55 338 9.0 16.0 0.00 0.11 0.11 32 1016.6
20260506164549 55 342 6.0 15.0 0.00 0.11 0.11 33 1016.5
20260506164033 55 360 7.0 15.0 0.00 0.11 0.11 33 1016.4
20260506163532 54 346 6.0 16.0 0.00 0.11 0.11 36 1016.3
20260506163034 54 304 10.0 16.0 0.00 0.11 0.11 33 1016.4
20260506162529 53 321 11.0 16.0 0.00 0.11 0.11 34 1016.2
20260506162028 54 311 10.0 16.0 0.00 0.11 0.11 37 1016.1
20260506161527 54 319 10.0 15.0 0.00 0.11 0.11 37 1015.9
20260506161026 53 355 9.0 16.0 0.00 0.11 0.11 36 1015.9
20260506160524 53 317 11.0 19.0 0.00 0.11 0.11 35 1016.0
20260506160023 52 306 12.0 20.0 0.00 0.11 0.11 34 1015.8
20260506155521 53 322 13.0 20.0 0.00 0.11 0.11 37 1015.7
20260506155020 53 53 10.0 15.0 0.00 0.11 0.11 37 1015.7
20260506154518 53 338 9.0 16.0 0.00 0.11 0.11 37 1015.6
20260506154017 53 343 8.0 16.0 0.00 0.11 0.11 36 1015.5
20260506153515 53 335 9.0 16.0 0.00 0.11 0.11 40 1015.4
20260506153014 52 342 9.0 15.0 0.00 0.11 0.11 43 1015.3
20260506152513 52 5 9.0 15.0 0.00 0.11 0.11 43 1015.4
20260506152011 52 355 9.0 17.0 0.00 0.11 0.11 43 1015.2
20260506151511 52 333 8.0 17.0 0.00 0.11 0.11 43 1015.3
20260506151009 52 323 9.0 18.0 0.00 0.11 0.11 43 1015.1
20260506150506 51 40 10.0 18.0 0.00 0.11 0.11 39 1015.2
20260506150006 51 5 8.0 18.0 0.00 0.11 0.11 42 1015.1
20260506145503 51 323 12.0 16.0 0.00 0.11 0.11 42 1014.9
20260506145001 51 309 7.0 12.0 0.00 0.11 0.11 49 1014.7
20260506144607 51 313 8.0 15.0 0.00 0.11 0.11 49 1014.7
20260506144059 50 315 9.0 15.0 0.00 0.11 0.11 49 1014.8
20260506143558 50 293 8.0 14.0 0.00 0.11 0.11 54 1014.7
20260506143059 50 316 9.0 14.0 0.00 0.11 0.11 52 1014.7
20260506142557 50 323 7.0 13.0 0.00 0.11 0.11 54 1014.6
20260506142058 49 355 9.0 13.0 0.00 0.11 0.11 55 1014.4
20260506141556 49 327 6.0 10.0 0.00 0.11 0.11 58 1014.3
20260506141055 48 331 3.0 6.0 0.00 0.11 0.11 60 1014.3
20260506140555 47 360 3.0 6.0 0.00 0.11 0.11 62 1014.2
20260506140055 47 315 2.0 4.0 0.00 0.11 0.11 64 1014.3
20260506135554 46 16 0.0 4.0 0.00 0.11 0.11 65 1014.1
20260506135053 45 16 1.0 4.0 0.00 0.11 0.11 66 1014.2
20260506134552 45 46 1.0 3.0 0.00 0.11 0.11 67 1014.1
20260506134052 44 46 1.0 3.0 0.00 0.11 0.11 69 1014.1
20260506133549 44 300 0.0 3.0 0.00 0.11 0.11 70 1014.0
20260506133104 44 300 1.0 7.0 0.00 0.11 0.11 71 1014.0
20260506132546 44 300 1.0 7.0 0.00 0.11 0.11 71 1013.9
20260506132046 44 322 0.0 5.0 0.00 0.11 0.11 72 1013.8
20260506131547 43 360 2.0 5.0 0.00 0.11 0.11 73 1013.7
20260506131044 42 134 0.0 1.0 0.00 0.11 0.11 73 1013.5
20260506130544 42 134 0.0 1.0 0.00 0.11 0.11 73 1013.4
20260506130043 43 360 0.0 1.0 0.00 0.11 0.11 72 1013.3
20260506125542 42 133 0.0 1.0 0.00 0.11 0.11 72 1012.9
20260506125041 42 132 0.0 2.0 0.00 0.11 0.11 71 1012.9
20260506124541 42 132 0.0 2.0 0.00 0.11 0.11 70 1012.9
20260506124042 43 132 0.0 0.0 0.00 0.11 0.11 69 1012.8
20260506123542 44 132 0.0 0.0 0.00 0.11 0.11 68 1012.7
20260506123040 45 132 0.0 0.0 0.00 0.11 0.11 67 1012.6
20260506122540 45 132 0.0 0.0 0.00 0.11 0.11 67 1012.6
20260506122040 44 132 0.0 0.0 0.00 0.11 0.11 67 1012.6
20260506121537 44 132 0.0 0.0 0.00 0.11 0.11 66 1012.6
20260506121037 45 132 0.0 1.0 0.00 0.11 0.11 65 1012.6
20260506120537 45 132 0.0 2.0 0.00 0.11 0.11 65 1012.4
20260506120052 45 132 0.0 2.0 0.00 0.11 0.11 66 1012.3
20260506115536 45 132 0.0 0.0 0.00 0.11 0.11 66 1012.3
20260506115035 45 132 0.0 0.0 0.00 0.11 0.11 67 1012.4
20260506114535 45 132 0.0 0.0 0.00 0.11 0.11 67 1012.3
20260506114035 44 132 0.0 0.0 0.00 0.11 0.11 66 1012.3
20260506113534 44 131 0.0 1.0 0.00 0.11 0.11 67 1012.2
20260506113034 44 131 0.0 1.0 0.00 0.11 0.11 68 1012.2
20260506112536 44 131 0.0 0.0 0.00 0.11 0.11 68 1012.3
20260506112033 44 131 0.0 3.0 0.00 0.11 0.11 68 1012.2
20260506111533 43 131 0.0 5.0 0.00 0.11 0.11 68 1012.0
20260506111033 43 136 1.0 5.0 0.00 0.11 0.11 68 1012.0
20260506110533 43 82 0.0 9.0 0.00 0.11 0.11 68 1012.2
20260506110032 44 98 2.0 9.0 0.00 0.11 0.11 68 1012.1
20260506105534 44 136 4.0 9.0 0.00 0.11 0.11 68 1011.9
20260506105031 44 53 3.0 14.0 0.00 0.11 0.11 67 1012.0
20260506104539 44 360 6.0 14.0 0.00 0.11 0.11 68 1012.0
20260506104030 44 88 5.0 16.0 0.00 0.11 0.11 68 1012.0